When you browse on this site, cookies collect data to enhance your experience and personalize the content and advertising you see.
Visit our Privacy Policy to learn more. By continuing to use the site, you agree to this use of cookies and data.
  • In Spain
  • List of Countries
  • For 7 days
  • Water Temperature
  • Satellite Maps
  • Weather Map
  • Weather Widgets
  • user-avatar
    Login

    Hourly Weather Graz

    Today, 20 April, Saturday

    Time Temperature Precipitation Wind Pressure Humidity
    00:00 +10°C° 0 mm 1 mps 733 mmHg 65%
    01:00 +11°C° 0 mm 1 mps 733 mmHg 65%
    02:00 +10°C° 0 mm 1 mps 733 mmHg 68%
    03:00 +10°C° 0 mm 1 mps 732 mmHg 70%
    04:00 +9°C° 0 mm 1 mps 732 mmHg 72%
    05:00 +10°C° 0 mm 1 mps 733 mmHg 69%
    06:00 +11°C° 0 mm 1 mps 733 mmHg 67%
    07:00 +13°C° 0 mm 1 mps 733 mmHg 60%
    08:00 +15°C° 0 mm 1 mps 733 mmHg 53%
    09:00 +18°C° 0 mm 1 mps 733 mmHg 47%
    10:00 +20°C° 0 mm 1 mps 733 mmHg 40%
    11:00 +20°C° 0 mm 1 mps 733 mmHg 38%
    12:00 +20°C° 0 mm 2 mps 732 mmHg 35%
    13:00 +22°C° 0 mm 1 mps 732 mmHg 31%
    14:00 +20°C° 0 mm 2 mps 732 mmHg 32%
    15:00 +20°C° 0 mm 2 mps 732 mmHg 33%
    16:00 +20°C° 0 mm 2 mps 731 mmHg 33%
    17:00 +17°C° 0 mm 2 mps 731 mmHg 42%
    18:00 +15°C° 0 mm 1 mps 730 mmHg 51%
    19:00 +12°C° 0 mm 1 mps 730 mmHg 60%
    20:00 +11°C° 0 mm 1 mps 730 mmHg 61%
    21:00 +11°C° 0 mm 1 mps 730 mmHg 63%
    22:00 +10°C° 0 mm 1 mps 731 mmHg 65%
    23:00 +10°C° 0 mm 1 mps 730 mmHg 67%

    Tomorrow, 21 April, Sunday

    Time Temperature Precipitation Wind Pressure Humidity
    00:00 +9°C° 0 mm 1 mps 730 mmHg 69%
    01:00 +9°C° 0 mm 1 mps 730 mmHg 71%
    02:00 +9°C° 0 mm 1 mps 730 mmHg 72%
    03:00 +8°C° 0 mm 1 mps 729 mmHg 74%
    04:00 +8°C° 0 mm 1 mps 729 mmHg 75%
    05:00 +9°C° 0 mm 1 mps 729 mmHg 71%
    06:00 +11°C° 0 mm 1 mps 729 mmHg 67%
    07:00 +12°C° 0 mm 1 mps 729 mmHg 63%
    08:00 +15°C° 0 mm 1 mps 729 mmHg 56%
    09:00 +18°C° 0 mm 1 mps 729 mmHg 48%
    10:00 +21°C° 0 mm 1 mps 729 mmHg 41%
    11:00 +21°C° 0 mm 1 mps 728 mmHg 39%
    12:00 +22°C° 0 mm 1 mps 728 mmHg 37%
    13:00 +21°C° 0 mm 2 mps 727 mmHg 34%
    14:00 +21°C° 0 mm 2 mps 727 mmHg 36%
    15:00 +21°C° 0 mm 2 mps 726 mmHg 37%
    16:00 +20°C° 0 mm 2 mps 726 mmHg 39%
    17:00 +18°C° 0 mm 2 mps 726 mmHg 47%
    18:00 +16°C° 0 mm 1 mps 725 mmHg 56%
    19:00 +13°C° 0 mm 1 mps 725 mmHg 65%
    20:00 +13°C° 0 mm 1 mps 725 mmHg 67%
    21:00 +12°C° 0 mm 1 mps 725 mmHg 70%
    22:00 +10°C° 0 mm 0 mps 726 mmHg 72%
    23:00 +10°C° 0 mm 1 mps 725 mmHg 73%

    Day after tomorrow, 22 April, Monday

    Time Temperature Precipitation Wind Pressure Humidity
    00:00 +10°C° 0 mm 1 mps 725 mmHg 74%
    01:00 +10°C° 0 mm 1 mps 725 mmHg 76%
    02:00 +9°C° 0 mm 1 mps 724 mmHg 77%
    03:00 +9°C° 0 mm 1 mps 724 mmHg 79%
    04:00 +9°C° 0 mm 1 mps 723 mmHg 81%
    05:00 +10°C° 0 mm 1 mps 723 mmHg 77%
    06:00 +11°C° 0 mm 1 mps 723 mmHg 72%
    07:00 +12°C° 0 mm 1 mps 723 mmHg 68%
    08:00 +15°C° 0 mm 1 mps 722 mmHg 59%
    09:00 +18°C° 0 mm 1 mps 722 mmHg 50%
    10:00 +21°C° 0 mm 1 mps 722 mmHg 41%
    11:00 +21°C° 0 mm 1 mps 721 mmHg 39%
    12:00 +21°C° 0 mm 2 mps 721 mmHg 36%
    13:00 +21°C° 0 mm 2 mps 720 mmHg 34%
    14:00 +21°C° 0 mm 2 mps 720 mmHg 35%
    15:00 +21°C° 0 mm 2 mps 719 mmHg 37%
    16:00 +21°C° 0 mm 3 mps 719 mmHg 38%
    17:00 +19°C° 0 mm 2 mps 718 mmHg 48%
    18:00 +17°C° 0 mm 2 mps 718 mmHg 57%
    19:00 +14°C° 0 mm 1 mps 718 mmHg 67%
    20:00 +13°C° 0 mm 1 mps 718 mmHg 72%
    21:00 +12°C° 0 mm 1 mps 718 mmHg 76%
    22:00 +11°C° 0 mm 1 mps 718 mmHg 81%
    23:00 +11°C° 0 mm 1 mps 718 mmHg 81%

    23 April, Tuesday

    Time Temperature Precipitation Wind Pressure Humidity
    00:00 +10°C° 0 mm 0 mps 718 mmHg 82%
    01:00 +10°C° 0 mm 0 mps 717 mmHg 82%
    02:00 +10°C° 0.2 mm 0 mps 717 mmHg 84%
    03:00 +10°C° 0.2 mm 0 mps 717 mmHg 86%
    04:00 +10°C° 0.2 mm 0 mps 716 mmHg 88%
    05:00 +11°C° 0.7 mm 1 mps 716 mmHg 91%
    06:00 +11°C° 0.7 mm 1 mps 716 mmHg 93%
    07:00 +11°C° 0.7 mm 1 mps 716 mmHg 95%
    08:00 +11°C° 0.8 mm 1 mps 716 mmHg 95%
    09:00 +11°C° 0.8 mm 1 mps 716 mmHg 95%
    10:00 +10°C° 0.8 mm 2 mps 717 mmHg 96%
    11:00 +12°C° 0.3 mm 2 mps 716 mmHg 95%
    12:00 +12°C° 0.3 mm 2 mps 716 mmHg 94%
    13:00 +12°C° 0.3 mm 1 mps 716 mmHg 93%
    14:00 +13°C° 0.3 mm 1 mps 716 mmHg 92%
    15:00 +13°C° 0.3 mm 1 mps 716 mmHg 91%
    16:00 +14°C° 0.3 mm 1 mps 716 mmHg 91%
    17:00 +13°C° 0.1 mm 1 mps 716 mmHg 93%
    18:00 +13°C° 0.1 mm 1 mps 716 mmHg 95%
    19:00 +13°C° 0.1 mm 1 mps 716 mmHg 97%
    20:00 +13°C° 0.1 mm 1 mps 716 mmHg 97%
    21:00 +12°C° 0.1 mm 1 mps 717 mmHg 98%
    22:00 +12°C° 0.1 mm 1 mps 717 mmHg 98%
    23:00 +12°C° 0 mm 1 mps 717 mmHg 97%

    24 April, Wednesday

    Time Temperature Precipitation Wind Pressure Humidity
    00:00 +12°C° 0 mm 1 mps 717 mmHg 97%
    01:00 +12°C° 0 mm 1 mps 718 mmHg 96%
    02:00 +12°C° 0 mm 1 mps 718 mmHg 96%
    03:00 +11°C° 0 mm 1 mps 718 mmHg 96%
    04:00 +11°C° 0 mm 1 mps 718 mmHg 97%
    05:00 +12°C° 0 mm 1 mps 719 mmHg 94%
    06:00 +13°C° 0 mm 1 mps 719 mmHg 92%
    07:00 +13°C° 0 mm 1 mps 719 mmHg 89%
    08:00 +15°C° 0 mm 1 mps 720 mmHg 82%
    09:00 +17°C° 0 mm 2 mps 720 mmHg 74%
    10:00 +18°C° 0 mm 2 mps 721 mmHg 67%
    11:00 +19°C° 0 mm 3 mps 721 mmHg 61%
    12:00 +21°C° 0 mm 4 mps 721 mmHg 54%
    13:00 +22°C° 0 mm 4 mps 721 mmHg 48%
    14:00 +22°C° 0 mm 4 mps 721 mmHg 47%
    15:00 +22°C° 0 mm 5 mps 721 mmHg 47%
    16:00 +22°C° 0 mm 5 mps 721 mmHg 46%
    17:00 +20°C° 0 mm 4 mps 721 mmHg 56%
    18:00 +18°C° 0 mm 3 mps 721 mmHg 66%
    19:00 +16°C° 0 mm 2 mps 721 mmHg 75%
    20:00 +15°C° 0 mm 2 mps 722 mmHg 80%
    21:00 +13°C° 0 mm 2 mps 722 mmHg 85%
    22:00 +12°C° 0 mm 1 mps 722 mmHg 90%
    23:00 +12°C° 0 mm 1 mps 723 mmHg 91%

    25 April, Thursday

    Time Temperature Precipitation Wind Pressure Humidity
    00:00 +12°C° 0 mm 1 mps 723 mmHg 92%
    01:00 +11°C° 0 mm 1 mps 723 mmHg 93%
    02:00 +10°C° 0 mm 2 mps 723 mmHg 93%
    03:00 +10°C° 0 mm 2 mps 723 mmHg 93%
    04:00 +10°C° 0 mm 2 mps 723 mmHg 94%
    05:00 +12°C° 0 mm 2 mps 724 mmHg 89%
    06:00 +13°C° 0 mm 1 mps 724 mmHg 84%
    07:00 +14°C° 0 mm 1 mps 725 mmHg 80%
    08:00 +18°C° 0 mm 1 mps 725 mmHg 71%
    09:00 +19°C° 0 mm 2 mps 725 mmHg 62%
    10:00 +21°C° 0 mm 2 mps 725 mmHg 53%
    11:00 +22°C° 0 mm 3 mps 725 mmHg 50%
    12:00 +24°C° 0 mm 3 mps 725 mmHg 48%
    13:00 +25°C° 0 mm 4 mps 724 mmHg 45%
    14:00 +25°C° 0 mm 4 mps 724 mmHg 45%
    15:00 +25°C° 0 mm 5 mps 723 mmHg 46%
    16:00 +23°C° 0 mm 5 mps 723 mmHg 46%
    17:00 +21°C° 0 mm 4 mps 723 mmHg 54%
    18:00 +19°C° 0 mm 3 mps 722 mmHg 62%
    19:00 +17°C° 0 mm 2 mps 722 mmHg 71%
    20:00 +16°C° 0 mm 2 mps 722 mmHg 76%
    21:00 +15°C° 0 mm 2 mps 722 mmHg 82%
    22:00 +14°C° 0 mm 1 mps 722 mmHg 87%
    23:00 +13°C° 0 mm 1 mps 722 mmHg 89%
    Show more